FW1564 Weather Reports


Display with metric or nautical units.
time (UTC)temp
F
wind
direction
speed
MPH
gust
MPH
rain 1hr
in
rain 24hr
in
rain mn
in
humidity
%
barometer
mb
20190717121857 68 184 6.0 13.0 0.00 0.00 0.00 77 1025.9
20190717120848 68 116 5.0 10.0 0.00 0.00 0.00 78 1025.8
20190717115840 68 189 4.0 13.0 0.00 0.00 0.00 79 1025.6
20190717114830 68 194 4.0 13.0 0.00 0.00 0.00 77 1025.6
20190717113822 68 176 2.0 10.0 0.00 0.00 0.00 77 1025.6
20190717112814 68 126 4.0 10.0 0.00 0.00 0.00 76 1025.7
20190717111805 68 134 7.0 13.0 0.00 0.00 0.00 79 1025.7
20190717110757 68 196 2.0 10.0 0.00 0.00 0.00 76 1025.6
20190717105747 68 166 7.0 8.0 0.00 0.00 0.00 76 1025.6
20190717104741 68 142 3.0 8.0 0.00 0.00 0.00 76 1025.6
20190717103740 68 121 6.0 10.0 0.00 0.00 0.00 76 1025.5
20190717102722 68 86 2.0 8.0 0.00 0.00 0.00 76 1025.5
20190717101714 68 180 3.0 8.0 0.00 0.00 0.00 76 1025.5
20190717100705 67 191 4.0 5.0 0.00 0.00 0.00 74 1025.5
20190717095657 67 208 0.0 8.0 0.00 0.00 0.00 76 1025.4
20190717094652 67 239 0.0 10.0 0.00 0.00 0.00 76 1025.5
20190717093643 67 174 0.0 5.0 0.00 0.00 0.00 77 1025.5
20190717092633 67 201 2.0 5.0 0.00 0.00 0.00 76 1025.1
20190717091624 69 187 2.0 8.0 0.00 0.00 0.00 77 1025.3
20190717090620 69 158 0.0 10.0 0.00 0.00 0.00 77 1025.2
20190717085608 68 150 5.0 10.0 0.00 0.00 0.00 71 1025.2
20190717084604 66 171 0.0 8.0 0.00 0.00 0.00 72 1025.1
20190717083551 65 150 0.0 5.0 0.00 0.00 0.00 79 1024.9
20190717082543 64 5 2.0 5.0 0.00 0.00 0.00 81 1024.7
20190717081536 63 348 2.0 8.0 0.00 0.00 0.00 80 1024.7
20190717080526 63 340 3.0 10.0 0.00 0.00 0.00 81 1024.6
20190717075518 62 355 5.0 8.0 0.00 0.00 0.00 81 1024.5
20190717074510 61 350 6.0 8.0 0.00 0.00 0.00 82 1024.4
20190717073500 61 350 5.0 5.0 0.00 0.00 0.00 85 1024.3
20190717072452 61 332 3.0 5.0 0.00 0.00 0.00 87 1024.2
20190717071457 61 341 4.0 8.0 0.00 0.00 0.00 87 1024.1
20190717070436 61 334 4.0 8.0 0.00 0.00 0.00 86 1024.1
20190717065428 61 351 4.0 8.0 0.00 0.00 0.00 86 1024.0
20190717064420 61 323 5.0 8.0 0.00 0.00 0.00 87 1023.8
20190717063410 61 355 4.0 10.0 0.00 0.00 0.00 86 1023.9
20190717062411 62 340 5.0 8.0 0.00 0.00 0.00 87 1023.8
20190717061355 62 330 4.0 8.0 0.00 0.00 0.00 86 1023.7
20190717060345 62 331 2.0 8.0 0.00 0.00 0.00 86 1023.6
20190717055338 62 320 2.0 8.0 0.00 0.00 0.00 86 1023.7
20190717054330 62 347 3.0 8.0 0.00 0.00 0.00 85 1023.6
20190717053324 62 342 2.0 5.0 0.00 0.00 0.00 87 1023.5
20190717052313 62 314 3.0 8.0 0.00 0.00 0.00 87 1023.5
20190717051305 63 339 2.0 5.0 0.00 0.00 0.00 87 1023.4
20190717050257 63 5 2.0 5.0 0.00 0.00 0.00 87 1023.3
20190717045250 63 326 2.0 5.0 0.00 0.00 0.00 88 1023.3
20190717044242 64 326 6.0 10.0 0.00 0.00 0.00 88 1023.3
20190717043233 64 187 0.0 2.0 0.00 0.00 0.00 88 1023.3
20190717042225 64 184 0.0 5.0 0.00 0.00 0.00 88 1023.3
20190717041220 63 246 0.0 2.0 0.00 0.00 0.00 88 1023.3
20190717040210 63 101 0.0 0.0 0.00 0.00 0.00 88 1023.3
20190717035201 63 190 0.0 0.0 0.00 0.00 0.00 91 1023.2
20190717034153 64 187 0.0 0.0 0.00 0.00 0.00 92 1023.2
20190717033144 64 180 0.0 0.0 0.00 0.00 0.00 92 1023.3
20190717032136 64 145 0.0 5.0 0.00 0.00 0.00 92 1023.2
20190717031129 64 203 0.0 5.0 0.00 0.00 0.00 92 1023.4
20190717030119 64 202 0.0 5.0 0.00 0.00 0.00 92 1023.4
20190717025110 64 193 0.0 5.0 0.00 0.00 0.00 91 1023.4
20190717024102 64 208 0.0 0.0 0.00 0.00 0.00 88 1023.5
20190717023109 64 165 0.0 2.0 0.00 0.00 0.00 88 1023.5
20190717022045 64 335 2.0 5.0 0.00 0.00 0.00 89 1023.8
20190717021036 64 205 0.0 2.0 0.00 0.00 0.00 91 1023.8
20190717020027 64 152 2.0 2.0 0.00 0.00 0.00 92 1023.8
20190717015019 65 200 0.0 5.0 0.00 0.00 0.00 93 1024.1
20190717014011 65 97 3.0 5.0 0.00 0.00 0.00 93 1024.1
20190717013003 65 182 0.0 2.0 0.00 0.00 0.00 92 1024.2
20190717011955 65 177 0.0 2.0 0.00 0.00 0.00 92 1024.2
20190717010945 65 196 0.0 5.0 0.00 0.00 0.00 91 1024.3
20190717005937 65 205 0.0 2.0 0.00 0.00 0.00 90 1024.3
20190717004928 65 178 0.0 0.0 0.00 0.00 0.00 90 1024.4
20190717003920 65 200 0.0 5.0 0.00 0.00 0.00 90 1024.5
20190717002913 65 193 0.0 5.0 0.00 0.00 0.00 90 1024.7
20190717001909 64 185 0.0 0.0 0.00 0.00 0.00 89 1024.6
20190717000854 64 189 0.0 2.0 0.00 0.00 0.00 90 1024.9
20190716235846 64 209 0.0 2.0 0.00 0.00 0.00 91 1024.7
20190716234840 64 187 0.0 2.0 0.00 0.00 0.00 92 1024.9
20190716233829 64 138 0.0 5.0 0.00 0.00 0.00 93 1025.0
20190716232820 64 180 1.0 8.0 0.00 0.00 0.00 94 1025.0
20190716231812 65 185 2.0 5.0 0.00 0.00 0.00 94 1024.9
20190716230805 65 187 0.0 5.0 0.00 0.00 0.00 94 1025.0
20190716225757 65 193 0.0 5.0 0.00 0.00 0.00 95 1024.7
20190716224748 65 200 1.0 5.0 0.00 0.00 0.00 95 1024.9
20190716223740 65 155 2.0 5.0 0.00 0.00 0.00 95 1024.6
20190716222732 65 106 2.0 5.0 0.00 0.00 0.00 95 1024.6
20190716221722 65 153 2.0 5.0 0.00 0.00 0.00 95 1024.5
20190716220715 65 189 5.0 10.0 0.00 0.00 0.00 95 1024.4
20190716215712 65 178 0.0 5.0 0.00 0.00 0.00 95 1024.3
20190716214658 65 127 5.0 5.0 0.00 0.00 0.00 95 1024.3
20190716213650 65 201 3.0 5.0 0.00 0.00 0.00 95 1024.1
20190716212641 65 189 3.0 8.0 0.00 0.00 0.00 95 1024.2
20190716211634 65 144 2.0 8.0 0.00 0.00 0.00 94 1024.2
20190716210625 65 112 1.0 8.0 0.00 0.00 0.00 94 1024.1
20190716205624 65 154 2.0 8.0 0.00 0.00 0.00 94 1024.0
20190716204609 65 183 1.0 5.0 0.00 0.00 0.00 94 1023.8
20190716203601 66 192 1.0 8.0 0.00 0.00 0.00 93 1023.9
20190716202552 66 127 2.0 5.0 0.00 0.00 0.00 92 1023.8
20190716201544 66 150 1.0 5.0 0.00 0.00 0.00 92 1023.6
20190716200537 66 170 1.0 5.0 0.00 0.00 0.00 92 1023.6
20190716195528 66 184 1.0 5.0 0.00 0.00 0.00 91 1023.5
20190716194520 66 197 0.0 5.0 0.00 0.00 0.00 91 1023.5
20190716193511 67 139 2.0 8.0 0.00 0.00 0.00 91 1023.4
20190716192503 67 194 2.0 5.0 0.00 0.00 0.00 89 1023.5
20190716191454 67 202 3.0 8.0 0.00 0.00 0.00 88 1023.5
20190716190452 67 157 2.0 8.0 0.00 0.00 0.00 88 1023.3
20190716185437 67 146 6.0 8.0 0.00 0.00 0.00 88 1023.2
20190716184429 67 193 2.0 8.0 0.00 0.00 0.00 88 1023.4
20190716183420 68 116 5.0 8.0 0.00 0.00 0.00 85 1023.2
20190716182411 68 204 3.0 8.0 0.00 0.00 0.00 84 1023.2
20190716181403 68 160 5.0 10.0 0.00 0.00 0.00 83 1023.1
20190716180355 69 147 3.0 8.0 0.00 0.00 0.00 83 1023.1
20190716175348 69 96 2.0 8.0 0.00 0.00 0.00 83 1023.1
20190716174340 69 134 4.0 8.0 0.00 0.00 0.00 80 1023.2
20190716173331 69 173 2.0 8.0 0.00 0.00 0.00 80 1023.4
20190716172321 69 130 5.0 10.0 0.00 0.00 0.00 79 1023.4
20190716171311 69 196 4.0 8.0 0.00 0.00 0.00 80 1023.4
20190716170305 69 184 2.0 8.0 0.00 0.00 0.00 79 1023.4
20190716165255 69 215 0.0 10.0 0.00 0.00 0.00 81 1023.4
20190716164245 70 162 3.0 8.0 0.00 0.00 0.00 79 1023.4
20190716163236 70 144 5.0 10.0 0.00 0.00 0.00 79 1023.5
20190716162231 71 150 2.0 10.0 0.00 0.00 0.00 79 1023.4
20190716161219 71 89 2.0 10.0 0.00 0.00 0.00 77 1023.3
20190716160210 71 164 4.0 10.0 0.00 0.00 0.00 76 1023.4
20190716155201 72 146 9.0 13.0 0.00 0.00 0.00 74 1023.4
20190716154156 73 117 9.0 13.0 0.00 0.00 0.00 76 1023.2
20190716153145 73 147 9.0 13.0 0.00 0.00 0.00 75 1023.2
20190716152138 73 167 3.0 13.0 0.00 0.00 0.00 72 1023.2
20190716151128 73 172 3.0 13.0 0.00 0.00 0.00 73 1023.2
20190716150121 72 50 1.0 10.0 0.00 0.00 0.00 75 1023.2
20190716145112 73 145 5.0 13.0 0.00 0.00 0.00 74 1023.3
20190716144107 73 135 5.0 13.0 0.00 0.00 0.00 73 1023.3
20190716143055 73 203 4.0 13.0 0.00 0.00 0.00 74 1023.3
20190716142052 72 205 3.0 15.0 0.00 0.00 0.00 73 1023.3
20190716141038 72 180 6.0 15.0 0.00 0.00 0.00 73 1023.2
20190716140033 72 170 8.0 15.0 0.00 0.00 0.00 76 1023.2
20190716135022 72 163 9.0 15.0 0.00 0.00 0.00 75 1023.2
20190716134014 72 199 6.0 10.0 0.00 0.00 0.00 73 1023.4
20190716133005 72 195 6.0 15.0 0.00 0.00 0.00 74 1023.3
20190716131957 72 171 2.0 13.0 0.00 0.00 0.00 76 1023.2
20190716130949 72 98 5.0 13.0 0.00 0.00 0.00 76 1023.2
20190716125940 72 129 2.0 13.0 0.00 0.00 0.00 74 1023.2
20190716124938 72 176 4.0 13.0 0.00 0.00 0.00 76 1023.3
20190716123924 72 113 8.0 13.0 0.00 0.00 0.00 73 1023.2
20190716122918 71 205 6.0 15.0 0.00 0.00 0.00 74 1023.3